TimeCDT,TemperatureF,Dew PointF,Humidity,Sea Level PressureIn,VisibilityMPH,Wind Direction,Wind SpeedMPH,Gust SpeedMPH,PrecipitationIn,Events,Conditions,WindDirDegrees,DateUTC
12:15 AM,66.2,62.8,89,29.99,10.0,North,3.5,-,N/A,,Clear,360,2013-07-25 05:15:00
12:35 AM,65.5,63.3,93,29.99,10.0,North,4.6,-,N/A,,Clear,10,2013-07-25 05:35:00
12:55 AM,65.3,63.0,92,29.98,10.0,North,4.6,-,N/A,,Clear,360,2013-07-25 05:55:00
1:15 AM,65.3,62.8,92,29.98,10.0,North,5.8,-,N/A,,Clear,10,2013-07-25 06:15:00
1:35 AM,64.8,62.8,93,29.98,10.0,North,4.6,-,N/A,,Clear,360,2013-07-25 06:35:00
1:55 AM,63.9,62.6,96,29.99,10.0,North,6.9,-,N/A,,Clear,360,2013-07-25 06:55:00
2:15 AM,63.9,62.6,96,29.98,10.0,North,5.8,-,N/A,,Clear,10,2013-07-25 07:15:00
2:35 AM,63.9,62.2,94,29.99,10.0,North,5.8,-,N/A,,Clear,360,2013-07-25 07:35:00
2:55 AM,63.7,62.1,94,29.99,10.0,North,5.8,-,N/A,,Clear,10,2013-07-25 07:55:00
3:15 AM,63.5,62.1,95,29.99,10.0,North,4.6,-,N/A,,Clear,360,2013-07-25 08:15:00
3:35 AM,63.0,61.9,96,30.00,10.0,North,4.6,-,N/A,,Clear,10,2013-07-25 08:35:00
3:55 AM,63.0,61.9,96,29.99,10.0,NNE,3.5,-,N/A,,Clear,20,2013-07-25 08:55:00
4:15 AM,62.8,61.7,96,30.00,10.0,North,4.6,-,N/A,,Clear,360,2013-07-25 09:15:00
4:35 AM,61.9,61.3,98,30.01,10.0,North,4.6,-,N/A,,Clear,360,2013-07-25 09:35:00
4:55 AM,61.7,61.3,99,30.01,10.0,North,5.8,-,N/A,,Clear,10,2013-07-25 09:55:00
5:15 AM,61.9,61.3,98,30.01,10.0,North,6.9,-,N/A,,Clear,10,2013-07-25 10:15:00
5:35 AM,61.7,61.2,98,30.01,10.0,Calm,Calm,-,N/A,,Clear,0,2013-07-25 10:35:00
5:55 AM,61.2,60.8,99,30.02,10.0,North,3.5,-,N/A,,Clear,10,2013-07-25 10:55:00
6:15 AM,61.5,61.2,99,30.03,10.0,North,3.5,-,N/A,,Clear,350,2013-07-25 11:15:00
6:35 AM,63.0,62.2,97,30.04,10.0,North,3.5,-,N/A,,Clear,360,2013-07-25 11:35:00
6:55 AM,64.2,62.6,94,30.03,10.0,North,4.6,-,N/A,,Clear,360,2013-07-25 11:55:00
7:15 AM,65.3,62.8,92,30.04,10.0,North,5.8,-,N/A,,Clear,10,2013-07-25 12:15:00
7:35 AM,65.8,62.6,89,30.04,10.0,North,4.6,-,N/A,,Clear,10,2013-07-25 12:35:00
7:55 AM,67.1,63.3,88,30.04,10.0,NNE,4.6,-,N/A,,Clear,30,2013-07-25 12:55:00
8:15 AM,67.6,63.5,87,30.04,10.0,NE,5.8,-,N/A,,Clear,40,2013-07-25 13:15:00
8:35 AM,68.7,63.5,83,30.04,10.0,NE,4.6,-,N/A,,Clear,50,2013-07-25 13:35:00
8:55 AM,70.0,63.5,80,30.04,10.0,East,3.5,-,N/A,,Clear,80,2013-07-25 13:55:00
9:15 AM,70.7,63.7,78,30.04,10.0,NNE,4.6,-,N/A,,Clear,20,2013-07-25 14:15:00
9:35 AM,71.8,64.2,77,30.05,10.0,NNW,4.6,-,N/A,,Clear,340,2013-07-25 14:35:00
9:55 AM,72.7,64.0,74,30.06,10.0,NNW,4.6,-,N/A,,Clear,340,2013-07-25 14:55:00
10:15 AM,74.1,65.3,74,30.07,10.0,North,5.8,-,N/A,,Clear,350,2013-07-25 15:15:00
10:35 AM,75.0,64.4,69,30.07,10.0,North,4.6,-,N/A,,Clear,360,2013-07-25 15:35:00
10:55 AM,76.1,64.0,66,30.08,10.0,North,8.1,-,N/A,,Clear,10,2013-07-25 15:55:00
11:15 AM,77.4,64.4,64,30.07,10.0,NNW,8.1,-,N/A,,Scattered Clouds,340,2013-07-25 16:15:00
11:35 AM,76.6,62.4,61,30.07,10.0,NNW,8.1,-,N/A,,Scattered Clouds,340,2013-07-25 16:35:00
11:55 AM,77.7,62.4,59,30.08,10.0,NNE,11.5,-,N/A,,Scattered Clouds,20,2013-07-25 16:55:00
12:15 PM,77.7,62.4,59,30.08,10.0,North,10.4,-,N/A,,Scattered Clouds,10,2013-07-25 17:15:00
12:35 PM,78.3,61.3,56,30.08,10.0,NNE,6.9,-,N/A,,Scattered Clouds,30,2013-07-25 17:35:00
12:55 PM,76.8,61.5,59,30.09,10.0,NNE,6.9,-,N/A,,Mostly Cloudy,20,2013-07-25 17:55:00
1:15 PM,79.2,62.4,56,30.08,10.0,NNE,3.5,-,N/A,,Scattered Clouds,20,2013-07-25 18:15:00
1:35 PM,78.8,61.0,54,30.08,10.0,North,8.1,-,N/A,,Scattered Clouds,10,2013-07-25 18:35:00
1:55 PM,79.7,62.2,55,30.07,10.0,NE,9.2,-,N/A,,Scattered Clouds,40,2013-07-25 18:55:00
2:15 PM,79.0,60.4,53,30.07,10.0,North,8.1,-,N/A,,Clear,360,2013-07-25 19:15:00
2:35 PM,79.7,61.0,53,30.07,10.0,North,4.6,-,N/A,,Scattered Clouds,360,2013-07-25 19:35:00
2:55 PM,80.1,60.6,51,30.07,10.0,NNE,6.9,-,N/A,,Scattered Clouds,20,2013-07-25 19:55:00
3:15 PM,80.2,61.2,52,30.06,10.0,North,8.1,-,N/A,,Clear,10,2013-07-25 20:15:00
3:35 PM,80.1,61.0,52,30.07,10.0,NNE,4.6,-,N/A,,Clear,30,2013-07-25 20:35:00
3:55 PM,80.1,60.8,52,30.06,10.0,North,5.8,-,N/A,,Scattered Clouds,350,2013-07-25 20:55:00
4:15 PM,80.1,61.0,52,30.07,10.0,NNE,8.1,-,N/A,,Scattered Clouds,20,2013-07-25 21:15:00
4:35 PM,80.4,60.6,51,30.07,10.0,NE,6.9,-,N/A,,Mostly Cloudy,50,2013-07-25 21:35:00
4:55 PM,79.7,61.0,53,30.07,10.0,North,5.8,-,N/A,,Scattered Clouds,10,2013-07-25 21:55:00
5:15 PM,79.0,61.0,54,30.07,10.0,NNE,6.9,-,N/A,,Scattered Clouds,20,2013-07-25 22:15:00
5:35 PM,79.0,60.8,54,30.07,10.0,NNE,5.8,-,N/A,,Scattered Clouds,20,2013-07-25 22:35:00
5:55 PM,79.7,60.6,52,30.07,10.0,North,6.9,-,N/A,,Clear,350,2013-07-25 22:55:00
6:15 PM,79.5,59.5,50,30.07,10.0,North,5.8,-,N/A,,Clear,10,2013-07-25 23:15:00
6:35 PM,79.0,60.1,52,30.07,10.0,NNE,6.9,-,N/A,,Clear,20,2013-07-25 23:35:00
6:55 PM,77.5,61.5,58,30.07,10.0,North,4.6,-,N/A,,Clear,10,2013-07-25 23:55:00
7:15 PM,77.4,61.5,58,30.07,10.0,North,4.6,-,N/A,,Clear,10,2013-07-26 00:15:00
7:35 PM,75.7,63.9,66,30.07,10.0,Calm,Calm,-,N/A,,Clear,0,2013-07-26 00:35:00
7:55 PM,74.3,64.9,72,30.07,10.0,Calm,Calm,-,N/A,,Clear,0,2013-07-26 00:55:00
8:15 PM,72.9,64.6,75,30.06,10.0,Calm,Calm,-,N/A,,Clear,0,2013-07-26 01:15:00
8:35 PM,70.9,65.3,82,30.06,10.0,Calm,Calm,-,N/A,,Clear,0,2013-07-26 01:35:00
8:55 PM,70.2,65.3,85,30.06,10.0,Calm,Calm,-,N/A,,Clear,0,2013-07-26 01:55:00
9:15 PM,67.5,65.3,93,30.07,10.0,Calm,Calm,-,N/A,,Clear,0,2013-07-26 02:15:00
9:35 PM,66.2,65.3,97,30.07,10.0,Calm,Calm,-,N/A,,Clear,0,2013-07-26 02:35:00
9:55 PM,67.3,65.5,94,30.07,10.0,Calm,Calm,-,N/A,,Clear,0,2013-07-26 02:55:00
10:15 PM,67.1,64.6,92,30.07,10.0,Calm,Calm,-,N/A,,Clear,0,2013-07-26 03:15:00
10:35 PM,67.1,63.9,89,30.07,10.0,Calm,Calm,-,N/A,,Clear,0,2013-07-26 03:35:00
10:55 PM,66.4,64.0,92,30.08,10.0,Calm,Calm,-,N/A,,Clear,0,2013-07-26 03:55:00
11:15 PM,66.0,63.7,92,30.08,10.0,Calm,Calm,-,N/A,,Clear,0,2013-07-26 04:15:00
11:35 PM,65.8,63.3,92,30.08,10.0,Calm,Calm,-,N/A,,Clear,0,2013-07-26 04:35:00
11:55 PM,65.3,63.5,94,30.08,10.0,Calm,Calm,-,N/A,,Clear,0,2013-07-26 04:55:00